CZ-6A DEB, 56674

Orbit data source: Space-Track

CZ-6A DEB, 56674 is space debris in SSO originally from a launch on Fri, 11 Nov 2022 UTC launched from the Taiyaun Space Center, China (TSC). Debris objects in space refer to the collection of defunct objects orbiting the Earth. Examples of debris include non-operational satellites, rocket bodies, and fragments generated from explosions, collisions, or faulty payload assembly.

Loading next visibility...
Identifier
56674, 2022-151AHA
Orbit
SSO
Country
Flag of CNCN / PRC
Related business
Manufacturer
SAST
Mission
Spacecraft
Bus & Motor
Unknown
Mass
Unknown
Launch date (UTC)
2022-11-11 (4 years ago)
Launch vehicle
Unknown
Launch site
Taiyaun Space Center, China (TSC)
Object type
Payload
Rocket body
Debris
Shape & HBR
Unknown shape, 0.1 m
Radar Cross Section
Small (<0.1 m²)

Expand to show TLE details & history
Last TLE update: 2 days ago

TLE from 2 days ago
0 CZ-6A DEB
1 56674U 22151AHA 26171.07233097  .00003296  00000-0  65395-3 0  9998
2 56674  98.5166 210.0559 0121866 304.3337  54.6377 14.58323160172032
Epoch: 2026-06-20T01:44Z
TLE epoch observation values (Epoch: 2026-06-20T01:44:09.395Z)
Latitude
-0.00008°
Longitude
-84.27544°
Altitude
652.352 km
Speed
7.558 km/s
True Right ascension
14h 00m 13s
True Declination
0° 00' 00"
Sunlit
Object was in full shadow at epoch
Visualization orbit readout
Latitude
Unknown
Longitude
Unknown
Altitude
Unknown
Speed
Unknown
Apparent Right ascension
Unknown
Apparent Declination
Unknown
Sunlit
N/A
Visualization observer readout
Local Sidereal Time
21:52:20
Azimuth
Unknown
Elevation
Unknown
Doppler factor
Unknown
Orbital elements
Apogee altitude
781.897 km
Perigee altitude
609.485 km
Semi-major axis
7,073.828 km
Eccentricity
0.01219
Inclination
98.5166°
RAAN
210.0559°
Arg. of periapsis
304.3337°
True anomaly
55.78659°
Mean anomaly
54.6377°
Eccentric anomaly
55.21114°
Mean motion
3.64806 °/min
Orbital period
98.68 mins
BSTAR
0.00065395
Loading maneuver chart data...
Computing Atmospheric mass density...
Loading historical data...
Loading historical data...
Loading historical data...
Loading historical data...
Loading historical data...
Loading historical data...
Loading historical data...

Documentation

Showing up to 5 results
|